Regional Weather Roundup
Issued by NWS Charleston, WV

Home | Current Version | Previous Version | Graphics & Text | Print | Product List | Glossary On
Versions: 1 2 3 4 5 6 7 8 9 10 11 12 13 14 15 16 17 18 19 20 21 22 23 24 25 26 27 28 29 30 31 32 33 34 35 36 37 38 39 40 41 42 43 44 45 46 47 48 49 50
000
ASUS41 KRLX 261810
RWRRLX
West Virginia Regional Weather Roundup
National Weather Service Charleston WV
100 PM EST THU FEB 26 2015

Note: "fair" indicates few or no clouds below 12,000 feet with no
significant weather and/or obstructions to visibility.

WVZ003-261900-
Northern Panhandle of West Virginia

CITY           SKY/WX    TMP DP  RH WIND       PRES   REMARKS
WHEELING       CLOUDY    21  10  62 NW6       29.94R
$$

WVZ009-261900-
Northwest West Virginia

CITY           SKY/WX    TMP DP  RH WIND       PRES   REMARKS
PARKERSBURG    PTSUNNY   27   9  46 NW8       30.00R
$$

WVZ006-261900-
Western West Virginia

CITY           SKY/WX    TMP DP  RH WIND       PRES   REMARKS
HUNTINGTON     PTSUNNY   34  17  50 N7        29.97R
$$

WVZ015-261900-
West Central West Virginia

CITY           SKY/WX    TMP DP  RH WIND       PRES   REMARKS
CHARLESTON     CLOUDY    31  18  58 NW10      29.95R
$$

WVZ022-031-261900-
North Central West Virginia

CITY           SKY/WX    TMP DP  RH WIND       PRES   REMARKS
CLARKSBURG     CLOUDY    31  18  58 NW7       29.90R
MORGANTOWN     CLOUDY    32  15  49 NW5       29.89S
$$

WVZ025-035-042-045-261900-
Southern West Virginia

CITY           SKY/WX    TMP DP  RH WIND       PRES   REMARKS
BECKLEY        CLOUDY    31  24  75 NW9       29.83S
LOGAN          CLOUDY    30  25  80 CALM      29.89R
BLUEFIELD      CLOUDY    33  23  66 NW7       29.83R
LEWISBURG      CLOUDY    35  24  64 SW6       29.83S
$$

WVZ047-261900-
Northern Mountains of West Virginia

CITY           SKY/WX    TMP DP  RH WIND       PRES   REMARKS
ELKINS         CLOUDY   N/A N/A N/A NW9       29.84R
$$

WVZ052-261900-
Eastern Panhandle of West Virginia

CITY           SKY/WX    TMP DP  RH WIND       PRES   REMARKS
MARTINSBURG    CLOUDY    31  21  66 N9        29.92S
PETERSBURG     CLOUDY    33  22  65 CALM      29.91R
$$


USA.gov is the U.S. government's official web portal to all federal, state and local government web resources and services.